FW0384 Weather Reports


time (UTC)temp
F
wind
direction
speed
knots
gust
knots
rain 1hr
in
rain 24hr
in
rain mn
in
humidity
%
barometer
mb
20260507193108 62 105 0.0 0.0 0.00 0.02 0.01 68 1012.4
20260507191554 62 105 0.0 0.0 0.00 0.02 0.01 67 1012.3
20260507190046 63 105 0.0 0.0 0.00 0.02 0.01 66 1012.2
20260507184545 63 105 0.0 0.0 0.00 0.09 0.01 66 1012.0
20260507183056 64 105 0.0 0.0 0.00 0.09 0.01 64 1011.9
20260507181545 64 105 0.0 0.0 0.00 0.09 0.01 63 1011.9
20260507180043 65 107 0.0 1.7 0.00 0.09 0.01 62 1011.8
20260507174544 66 96 0.0 0.9 0.00 0.12 0.01 61 1011.6
20260507173101 67 102 0.0 0.0 0.00 0.12 0.01 59 1011.6
20260507171545 69 179 0.0 0.0 0.00 0.12 0.01 56 1011.8
20260507170047 69 188 0.0 0.9 0.00 0.12 0.01 56 1011.7
20260507164546 69 112 0.0 3.5 0.00 0.12 0.01 56 1011.9
20260507163040 70 122 0.0 0.0 0.00 0.12 0.01 57 1012.0
20260507161542 71 109 0.0 0.0 0.00 0.12 0.01 54 1012.0
20260507160058 71 103 0.0 0.9 0.00 0.12 0.01 54 1012.0
20260507154539 70 98 0.0 3.5 0.00 0.12 0.01 54 1012.1
20260507153038 71 105 0.0 1.7 0.00 0.12 0.01 53 1012.1
20260507151536 72 85 0.0 3.5 0.00 0.12 0.01 54 1012.2
20260507150033 71 91 0.0 0.9 0.00 0.12 0.01 54 1012.3
20260507144543 70 102 0.0 3.5 0.00 0.12 0.01 58 1012.3
20260507143034 71 92 0.0 0.9 0.00 0.12 0.01 56 1012.4
20260507141530 69 66 0.0 0.9 0.00 0.12 0.01 58 1012.4
20260507140033 69 111 0.0 3.5 0.00 0.12 0.01 57 1012.6
20260507134529 69 109 0.0 3.5 0.00 0.12 0.01 57 1012.9
20260507133028 68 105 0.0 3.5 0.00 0.12 0.01 58 1013.0
20260507131530 69 107 0.0 3.5 0.00 0.12 0.01 55 1013.1
20260507130031 69 146 0.0 0.9 0.00 0.12 0.01 60 1013.2
20260507124523 69 132 0.0 0.0 0.00 0.12 0.01 62 1013.4
20260507123026 67 169 0.0 0.9 0.00 0.12 0.01 65 1013.4
20260507121514 65 96 0.0 0.0 0.00 0.12 0.01 68 1013.6
20260507120012 63 124 0.0 0.0 0.00 0.13 0.01 71 1013.6
20260507114510 62 117 0.0 0.0 0.00 0.13 0.01 73 1013.7
20260507113010 62 205 0.0 0.0 0.00 0.13 0.01 74 1013.9
20260507111510 62 198 0.0 0.0 0.00 0.13 0.01 73 1013.9
20260507110010 63 138 0.0 0.0 0.00 0.13 0.01 71 1014.0
20260507104511 63 106 0.0 0.0 0.00 0.13 0.01 70 1013.9
20260507103008 63 104 0.0 0.0 0.00 0.13 0.01 68 1014.0
20260507101514 63 103 0.0 0.0 0.00 0.13 0.01 70 1014.0
20260507100007 62 97 0.0 0.0 0.00 0.18 0.01 71 1014.2
20260507094507 63 96 0.0 0.0 0.00 0.18 0.01 69 1014.2
20260507093009 64 103 0.0 0.0 0.00 0.18 0.01 71 1014.0
20260507091502 62 97 0.0 0.0 0.00 0.18 0.01 75 1014.0
20260507090111 60 108 0.0 0.0 0.00 0.18 0.01 78 1014.0
20260507084555 59 110 0.0 0.0 0.00 0.28 0.01 79 1014.0
20260507083050 56 184 0.0 0.0 0.00 0.28 0.01 85 1014.0
20260507081545 55 191 0.0 0.0 0.00 0.28 0.01 86 1014.1
20260507080042 55 240 0.0 0.0 0.00 0.28 0.01 88 1014.0
20260507074542 54 240 0.0 0.0 0.00 0.43 0.01 88 1013.9
20260507073039 54 240 0.0 0.0 0.00 0.43 0.01 90 1013.8
20260507071535 53 240 0.0 0.0 0.00 0.43 0.01 91 1013.7
20260507070034 53 240 0.0 0.0 0.00 0.57 0.01 92 1013.7
20260507064531 52 240 0.0 0.0 0.00 0.57 0.01 92 1013.6
20260507063030 51 240 0.0 0.0 0.00 0.57 0.01 92 1013.6
20260507061527 51 240 0.0 0.0 0.00 0.57 0.01 92 1013.6
20260507060023 50 240 0.0 0.0 0.00 0.73 0.01 92 1013.5
20260507054518 50 240 0.0 0.0 0.00 0.73 0.01 92 1013.6
20260507053016 50 240 0.0 0.0 0.00 0.73 0.01 91 1013.4
20260507051514 49 240 0.0 0.0 0.00 0.73 0.01 91 1013.2
20260507050012 49 240 0.0 0.0 0.00 0.86 0.01 91 1013.0
20260507044511 49 240 0.0 0.0 0.00 0.86 0.01 91 1012.9
20260507043009 49 240 0.0 0.0 0.00 0.86 0.01 91 1012.9
20260507041523 49 240 0.0 0.0 0.00 0.86 0.01 91 1012.8
20260507040008 49 240 0.0 0.0 0.00 0.94 0.01 91 1012.8
20260507034512 49 240 0.0 0.0 0.00 0.94 0.01 91 1012.8
20260507033009 49 240 0.0 0.0 0.00 0.94 0.01 91 1012.7
20260507031505 49 240 0.0 0.0 0.00 0.94 0.01 91 1012.5
20260507030004 49 240 0.0 0.0 0.00 0.95 0.01 91 1012.6
20260507024505 49 240 0.0 0.0 0.00 0.95 0.01 90 1012.6
20260507023001 49 240 0.0 0.0 0.00 0.95 0.01 90 1012.5
20260507021600 50 240 0.0 0.0 0.00 0.95 0.01 90 1012.3
20260507020059 50 240 0.0 0.0 0.00 0.95 0.01 91 1012.3
20260507014607 50 240 0.0 0.0 0.00 0.95 0.01 91 1012.3
20260507013113 50 240 0.0 0.0 0.00 0.95 0.01 91 1012.3
20260507011556 50 240 0.0 0.0 0.00 0.95 0.01 91 1012.2
20260507010056 50 240 0.0 0.0 0.00 0.95 0.01 91 1012.3
20260507004555 50 240 0.0 0.0 0.00 0.95 0.01 91 1012.2
20260507003053 50 240 0.0 0.0 0.00 0.95 0.01 90 1012.3
20260507001609 50 240 0.0 0.0 0.00 0.95 0.01 90 1012.2
20260507000051 50 240 0.0 0.0 0.00 0.95 0.01 90 1012.1
20260506234552 51 240 0.0 0.0 0.01 0.95 0.01 90 1012.1
20260506233049 51 240 0.0 0.0 0.01 0.95 0.01 90 1011.9
20260506231549 51 240 0.0 0.0 0.01 0.95 0.01 90 1012.0
20260506230047 51 240 0.0 0.0 0.01 0.95 0.01 90 1012.0
20260506224546 51 240 0.0 0.0 0.00 0.94 0.00 90 1011.9
20260506223101 51 240 0.0 0.0 0.00 0.94 0.00 90 1011.9
20260506221543 51 240 0.0 0.0 0.00 0.94 0.00 90 1011.8
20260506220042 51 240 0.0 0.0 0.00 0.94 0.00 90 1011.8
20260506214542 51 240 0.0 0.0 0.00 1.08 0.94 90 1011.7
20260506213039 51 240 0.0 0.0 0.00 1.08 0.94 89 1011.6
20260506211540 51 240 0.0 0.0 0.00 1.08 0.94 89 1011.7
20260506210040 51 240 0.0 0.0 0.00 1.31 0.94 90 1011.7
20260506204535 51 240 0.0 0.0 0.00 1.31 0.94 89 1011.5
20260506203041 51 240 0.0 0.0 0.00 1.31 0.94 89 1011.4
20260506201532 51 240 0.0 0.0 0.00 1.31 0.94 89 1011.3
20260506200035 52 240 0.0 0.0 0.01 1.31 0.94 89 1011.2
20260506194530 52 240 0.0 0.0 0.03 1.31 0.94 89 1011.1